Tracking 29892 objects as of 21-Nov-2024
HD Live streaming from Space Station
objects crossing your sky now

STARLINK-30958

Track STARLINK-30958 now!
10-day predictions
STARLINK-30958 is classified as:


NORAD ID: 58457
Int'l Code: 2023-183W
Perigee: 565.8 km
Apogee: 566.5 km
Inclination: 43.0 °
Period: 95.8 minutes
Semi major axis: 6937 km
RCS: Unknown
Launch date: November 28, 2023
Source: United States (US)
Launch site: AIR FORCE EASTERN TEST RANGE (AFETR)
Your satellite tracking list
Your tracking list is empty




NASA's NSSDC Master Catalog

Two Line Element Set (TLE):
1 58457U 23183W   24325.74762274  .00002226  00000-0  17970-3 0  9990
2 58457  42.9953  98.3656 0000533 155.5443 204.5424 15.02550445 55426
Source of the keplerian elements: AFSPC